KUIPER-00276

导读

KUIPER-00276是亚马逊柯伊伯(Kuiper)低轨宽带星座中的一颗卫星,于2026年2月12日由欧洲阿丽亚娜64型火箭在法属圭亚那库鲁航天中心发射,发射归属法国相关航天任务。 该卫星属于亚马逊打造的全球低轨卫星互联网星座,项目规划部署超过3000颗卫星,旨在提供全球范围的高速宽带互联服务,此次发射是阿丽亚娜6号火箭首次商业发射,也是柯伊伯星座单次发射卫星数量最多的任务之一。

基本信息
目录编号:
67794
目录名称:
KUIPER-00276
国际标识:
2026-030AG
轨道中心:
EARTH
卫星名称:
KUIPER-00276
卫星全名:
KUIPER-00276
卫星状态:
在轨 (已飞行166 天)
发射日期:
2026-02-12 UTC
国别 :
美国 (US)
星等 :
--
轨道信息
数据来源 国际轨道数据 AOE轨道数据
星历时间 2026-07-27T23:13:31+0800
10小时前
查看轨道信息
2026-07-26T14:00:00+0800
1天前
查看轨道信息
半长轴 7007.688km 7007.679km
偏心率 0.0001499 0.0001086
轨道倾角 51.899° 51.897°
近地点辐角 185.774° 191.067°
升交点赤经 289.277° 295.398°
平近点角 174.321° 348.920°
近地点 628.5km 628.78km
远地点 630.602km 630.304km
周期 97.302分钟 97.302分钟
每日圈数 14.799282 14.799311
详细信息
使用方式:
暂无
2D轨道图
3D轨道图
轨道高度分析图
轨道倾角分析图
轨道综合分析图
查看轨道综合分析图